This is the latest recevied weather packets stored in our database for station/object W9QL-13. If no packets are shown the sender has not sent any weather packets the latest 10 day(s).
| Time | Temp. | Humidity | Pressure | Rain* | Wind** | Luminosity | Snow |
|---|---|---|---|---|---|---|---|
| 1778184645 | 8.89° C | 76% | 1009.5 hPa | 0 mm | - | - | - |
| 1778184315 | 8.89° C | 75% | 1009.6 hPa | 0 mm | - | - | - |
| 1778184015 | 8.89° C | 72% | 1009.8 hPa | 0 mm | - | - | - |
| 1778183685 | 8.89° C | 71% | 1010 hPa | 0 mm | - | - | - |
| 1778183355 | 8.89° C | 67% | 1009.9 hPa | 0 mm | - | - | - |
| 1778183025 | 8.89° C | 67% | 1010 hPa | 0 mm | - | - | - |
| 1778182725 | 8.89° C | 68% | 1010.1 hPa | 0 mm | - | - | - |
| 1778182395 | 8.89° C | 67% | 1010 hPa | 0 mm | - | - | - |
| 1778182065 | 8.89° C | 70% | 1010.1 hPa | 0 mm | - | - | - |
| 1778181765 | 8.89° C | 70% | 1010.1 hPa | 0 mm | - | - | - |
| 1778181465 | 9.44° C | 71% | 1010.1 hPa | 0 mm | - | - | - |
| 1778181165 | 9.44° C | 71% | 1010.2 hPa | 0 mm | - | - | - |
| 1778180865 | 10° C | 67% | 1010.4 hPa | 0 mm | - | - | - |
| 1778180535 | 10° C | 58% | 1010.3 hPa | 0 mm | - | - | - |
| 1778180205 | 10° C | 56% | 1010.2 hPa | 0 mm | - | - | - |
| 1778179905 | 10.56° C | 55% | 1010.2 hPa | 0 mm | - | - | - |
| 1778179575 | 10.56° C | 54% | 1010.1 hPa | 0 mm | - | - | - |
| 1778179274 | 10.56° C | 54% | 1010.2 hPa | 0 mm | - | - | - |
| 1778178976 | 10.56° C | 55% | 1010.4 hPa | 0 mm | - | - | - |
| 1778178674 | 10.56° C | 53% | 1010.5 hPa | 0 mm | - | - | - |
| 1778178374 | 10.56° C | 53% | 1010.6 hPa | 0 mm | - | - | - |
| 1778178075 | 10.56° C | 51% | 1010.7 hPa | 0 mm | - | - | - |
| 1778177774 | 11.67° C | 48% | 1010.8 hPa | 0 mm | - | - | - |
| 1778177444 | 12.78° C | 44% | 1011 hPa | 0 mm | - | - | - |
| 1778177114 | 12.78° C | 44% | 1011.2 hPa | 0 mm | - | - | - |
* Rain latest hour (hover to see other rain measurements)
** Current wind speed in m/s (hover to see current wind gust speed)